Helicity
267 306 303 430 478 501 395 210 214 171 147 289 259 252 295 320 349 355 336 318 294 242 224 181 140 143 165 141 114 107 87 82
429 449 420 422 335 252 180 163 132 168 206 157 205 212 217 226 207 198 190 157 151 136 146 175 147 131 108 102 87 97 81 63
526 484 411 318 201 159 198 188 140 97 89 88 109 128 122 85 73 93 92 99 103 94 79 68 61 79 108 121 128 129 130 144
294 247 153 90 81 89 95 60 63 59 65 68 72 78 77 83 112 140 150 137 124 107 78 49 45 61 92 108 144 187 184 153
74 -5 5 27 26 17 3 -12 0 20 16 39 46 59 68 91 106 89 80 91 91 88 86 75 75 75 93 105 143 144 148 150
-21 -23 -2 -1 7 12 -11 19 17 -4 10 32 53 83 123 137 132 131 134 118 110 72 60 47 52 31 31 65 80 94 80 64
-25 2 10 -16 39 35 58 84 47 67 112 125 141 143 128 153 141 135 118 111 101 70 74 66 49 44 44 56 73 97 108 98
-60 -26 -21 24 83 83 75 119 147 156 191 196 181 176 152 142 135 131 127 108 93 77 51 31 31 39 82 83 92 104 96 106
48 40 110 134 151 138 149 172 170 195 210 214 180 139 114 124 113 103 95 97 98 73 89 68 82 97 74 83 98 92 90 98
166 185 229 224 186 142 144 145 168 174 186 153 104 114 144 131 112 115 135 129 161 128 97 105 108 87 83 84 75 66 91 90
320 315 272 225 166 137 140 150 187 171 177 167 150 112 115 131 163 148 149 117 164 177 119 152 174 120 96 76 64 63 98 84
275 286 266 212 153 134 117 148 160 170 150 120 128 134 139 133 135 136 161 178 194 188 234 249 249 202 159 83 57 65 103 151
378 299 223 167 164 148 68 121 163 121 106 107 133 123 142 159 161 182 169 202 187 244 271 244 211 71 62 71 66 106 132 147
283 232 199 168 106 59 165 142 98 121 111 118 130 149 149 136 111 115 151 145 205 246 235 223 91 40 93 107 116 140 161 128
263 234 162 110 94 161 160 202 186 157 158 161 165 158 126 134 141 151 111 112 185 263 248 146 12 122 102 156 176 174 141 113
226 142 106 156 126 130 206 200 165 141 150 152 145 146 142 135 120 97 84 132 202 198 131 54 120 174 144 161 178 133 106 106
106 197 155 129 141 180 160 139 128 126 134 133 116 142 156 131 106 99 108 146 165 128 129 176 222 155 112 141 123 103 112 122
154 102 88 138 159 130 116 91 94 83 155 151 158 146 129 115 88 72 76 112 134 187 218 210 144 111 117 128 133 133 134 125
96 95 130 132 97 94 82 78 102 151 176 170 150 132 110 91 86 93 98 126 160 138 141 140 120 111 145 151 150 129 118 116
Wind_Speed
31 27 23 19 13 10 16 29 29 33 36 37 40 42 44 45 45 45 47 49 51 54 59 64 68 73 76 76 78 81 82 86
28 29 27 25 23 19 26 33 33 33 38 37 42 44 45 46 46 47 48 50 55 58 63 67 69 73 75 79 82 86 82 84
27 29 32 30 28 29 33 36 35 36 37 38 40 42 45 45 45 48 51 52 54 60 64 68 72 78 81 80 77 79 76 77
25 26 27 27 28 29 32 34 36 38 39 40 41 41 43 50 51 51 54 56 60 65 68 71 74 75 76 73 72 75 80 74
22 23 25 27 27 28 30 31 34 36 38 41 43 45 48 48 45 47 53 56 63 68 68 69 71 71 74 73 72 73 75 82
19 21 23 26 28 30 29 31 35 37 40 43 46 49 50 49 52 57 62 67 70 69 69 70 71 70 69 69 68 68 67 71
16 21 23 27 32 34 37 37 40 41 44 47 48 49 51 54 58 65 68 70 70 67 68 67 68 68 67 65 63 64 69 69
16 21 25 32 38 39 36 41 43 46 49 53 52 52 53 57 60 64 68 70 68 67 67 68 67 65 63 61 63 65 65 71
28 32 35 38 39 38 41 41 47 49 52 55 53 53 54 57 60 63 65 65 64 64 66 64 63 61 60 60 61 62 64 68
31 34 36 39 43 43 44 47 49 50 54 54 54 55 58 60 60 61 60 62 63 63 62 65 64 63 62 60 64 65 63 62
29 32 37 42 44 50 51 50 51 53 54 57 59 59 59 60 60 62 63 65 67 67 67 67 64 59 57 62 60 62 63 62
26 33 40 45 47 51 49 48 50 54 56 58 61 63 62 62 65 67 69 72 73 70 68 69 68 60 59 55 59 63 59 59
31 37 43 46 51 54 48 50 53 55 58 65 69 65 64 69 73 76 78 77 71 67 71 68 57 51 48 56 60 58 58 60
31 40 46 49 53 53 56 60 59 63 67 69 69 71 73 77 79 81 78 74 71 69 73 66 53 46 49 50 54 58 60 61
32 42 47 55 57 60 63 64 63 66 70 71 73 75 79 82 82 82 76 71 71 70 66 51 47 45 47 48 53 58 59 59
36 42 52 62 59 59 59 63 66 69 72 74 77 79 80 80 80 79 76 74 69 65 57 47 46 46 47 49 57 60 63 65
37 51 55 55 55 58 62 66 69 71 73 76 73 76 78 81 83 85 83 73 65 54 50 44 44 41 40 50 58 63 63 64
46 46 49 53 57 60 66 69 72 74 71 71 72 75 82 84 85 85 79 66 53 48 43 39 34 37 44 55 62 63 63 64
40 44 49 52 56 63 69 72 73 69 70 73 75 81 83 83 83 78 69 56 45 42 36 34 38 46 54 57 60 63 64 66
Wind_Direction
336 344 359 358 17 346 347 340 356 358 9 9 11 12 6 1 0 358 355 352 350 346 342 339 338 333 331 330 328 326 325 324
14 22 34 40 32 7 3 355 6 3 360 1 358 355 358 359 358 356 353 349 346 343 339 337 336 333 330 328 325 323 323 325
23 33 38 34 29 20 12 11 15 14 10 5 360 357 356 356 355 351 349 347 345 341 337 334 332 330 328 328 328 325 325 328
30 29 28 31 22 14 14 13 9 8 6 3 359 357 352 345 345 345 344 344 342 340 338 336 334 334 332 331 330 329 324 325
36 39 31 36 25 15 15 12 8 6 4 356 351 346 344 345 347 346 344 343 340 339 338 337 335 334 331 329 328 326 325 321
38 41 30 28 18 9 10 7 360 355 354 351 348 344 344 343 340 338 337 337 337 337 335 334 333 332 331 330 329 328 327 323
21 26 17 10 4 359 2 1 353 353 351 350 349 346 343 340 338 336 336 336 336 336 336 335 334 332 331 330 329 328 326 325
9 359 352 348 346 349 352 353 351 350 349 347 346 345 344 341 339 338 337 336 335 335 335 334 333 332 332 331 330 329 328 326
341 334 335 344 350 349 348 350 347 347 347 347 347 346 344 341 339 338 337 336 335 334 334 335 334 333 332 332 332 331 330 328
336 339 340 341 341 343 344 344 345 346 346 347 345 343 341 339 337 338 336 336 335 332 332 333 331 331 331 332 331 331 332 332
349 345 341 341 341 338 342 344 345 345 346 345 343 342 340 338 337 335 333 333 333 331 330 331 331 329 331 331 330 332 333 333
2 352 345 341 342 343 345 347 346 344 344 343 341 339 340 339 336 335 334 333 333 332 332 332 330 328 330 331 331 333 335 336
351 347 345 344 343 344 346 345 343 342 342 341 340 339 339 338 337 335 333 332 331 331 331 329 330 333 333 330 332 336 336 336
353 345 342 341 342 344 343 342 340 340 340 342 342 341 340 339 338 337 336 334 332 332 333 330 328 331 333 336 337 336 335 335
351 343 340 339 339 339 341 343 345 344 344 344 343 343 341 341 341 340 339 337 334 333 333 331 325 329 331 339 341 339 338 337
346 343 338 336 338 341 344 345 345 344 343 342 341 342 343 343 341 340 338 334 334 335 335 333 332 332 333 340 341 340 338 336
345 338 338 340 343 344 344 343 342 342 341 341 343 343 343 342 341 339 336 336 337 340 342 346 348 348 348 344 342 340 339 338
339 340 342 343 343 344 343 341 341 341 341 342 343 344 342 342 341 342 343 343 346 352 358 2 8 4 355 348 345 344 343 342
342 341 342 344 344 343 342 341 340 342 342 342 343 342 342 343 344 346 350 357 2 7 13 18 10 1 355 352 351 349 348 346